User: anonymous
Location: Unspecified
(0.0000°N, 0.0000°E)
Time: 08:13:17
(UTC+02:00)
Language:

Cosmos 1536 - Orbit

View from above orbital plane
View from above orbital plane
View from above satellite
View from above satellite

Ground track
Ground track

The orbit data is extracted from the following two-line orbital elements,

1 14699U 84013A   14113.13214959  .00002745  00000-0  20713-3 0   668
2 14699 082.5293 002.0319 0013910 022.5663 337.6171 15.01989801640081
Epoch (UTC): 23 April 2014 03:10:17
Eccentricity: 0.0013910
inclination: 82.5293°
perigee height: 551 km
apogee height: 570 km
right ascension of ascending node: 2.0319°
argument of perigee: 22.5663°
revolutions per day: 15.01989801
mean anomaly at epoch: 337.6171°
orbit number at epoch: 64008

The dashed part of the orbit path shows where the satellite is in the earth's shadow,  

DLR